TimeAKST,TemperatureF,Dew PointF,Humidity,Sea Level PressureIn,VisibilityMPH,Wind Direction,Wind SpeedMPH,Gust SpeedMPH,PrecipitationIn,Events,Conditions,WindDirDegrees,DateUTC
12:53 AM,30.0,28.0,92,29.53,9.0,Calm,Calm,-,N/A,Fog,Patches of Fog,0,2013-01-14 09:53:00
1:53 AM,30.9,28.9,92,29.53,10.0,NNW,3.5,-,N/A,,Mostly Cloudy,340,2013-01-14 10:53:00
3:53 AM,25.0,23.0,92,29.49,10.0,Calm,Calm,-,N/A,Fog,Patches of Fog,0,2013-01-14 12:53:00
4:53 AM,27.0,26.1,96,29.44,10.0,NE,3.5,-,N/A,,Overcast,40,2013-01-14 13:53:00
5:53 AM,26.1,25.0,96,29.39,10.0,NE,3.5,-,N/A,,Overcast,40,2013-01-14 14:53:00
6:53 AM,28.0,27.0,96,29.37,10.0,Calm,Calm,-,N/A,,Overcast,0,2013-01-14 15:53:00
7:53 AM,30.0,28.0,92,29.34,10.0,Calm,Calm,-,N/A,,Overcast,0,2013-01-14 16:53:00
8:21 AM,30.2,28.4,93,29.31,10.0,Calm,Calm,-,N/A,Rain,Light Freezing Rain,0,2013-01-14 17:21:00
8:53 AM,32.0,30.9,96,29.30,10.0,NE,8.1,-,N/A,Rain,Light Freezing Rain,50,2013-01-14 17:53:00
9:17 AM,33.8,30.2,87,29.25,10.0,NNE,10.4,-,N/A,Rain,Light Rain,20,2013-01-14 18:17:00
9:53 AM,33.1,32.0,96,29.28,10.0,Calm,Calm,-,N/A,,Overcast,0,2013-01-14 18:53:00
10:53 AM,33.1,30.9,92,29.33,10.0,Calm,Calm,-,N/A,,Overcast,0,2013-01-14 19:53:00
11:53 AM,33.1,30.9,92,29.37,10.0,WSW,6.9,-,N/A,,Overcast,250,2013-01-14 20:53:00
12:53 PM,36.0,33.1,89,29.42,10.0,Variable,4.6,-,N/A,Rain,Light Rain,0,2013-01-14 21:53:00
1:53 PM,33.1,30.9,92,29.45,10.0,South,8.1,-,N/A,Rain,Light Rain,190,2013-01-14 22:53:00
2:13 PM,32.0,30.2,93,29.45,10.0,SSW,8.1,-,N/A,Rain-Snow,Light Freezing Rain,210,2013-01-14 23:13:00
2:53 PM,32.0,30.9,96,29.51,10.0,Calm,Calm,-,N/A,Rain-Snow,Light Freezing Rain,0,2013-01-14 23:53:00
3:16 PM,33.8,30.2,87,29.49,5.0,Calm,Calm,-,N/A,Rain-Snow,Light Rain,0,2013-01-15 00:16:00
3:53 PM,33.1,30.9,92,29.53,7.0,South,3.5,-,N/A,Rain,Light Rain,170,2013-01-15 00:53:00
4:47 PM,33.8,30.2,87,29.54,2.5,South,6.9,-,N/A,Snow,Light Snow,190,2013-01-15 01:47:00
4:53 PM,32.0,30.9,96,29.57,2.0,South,6.9,-,N/A,Snow,Light Snow,190,2013-01-15 01:53:00
5:17 PM,33.8,30.2,87,29.55,6.0,South,5.8,-,N/A,Snow,Light Snow,190,2013-01-15 02:17:00
5:53 PM,33.1,32.0,96,29.60,7.0,Calm,Calm,-,N/A,Rain-Snow,Light Rain,0,2013-01-15 02:53:00
6:10 PM,33.8,32.0,93,29.58,7.0,SSW,3.5,-,N/A,Rain,Light Rain,200,2013-01-15 03:10:00
6:53 PM,35.1,32.0,89,29.62,7.0,Calm,Calm,-,N/A,Rain,Light Rain,0,2013-01-15 03:53:00
7:53 PM,34.0,32.0,92,29.66,7.0,SSW,4.6,-,N/A,Rain,Light Rain,210,2013-01-15 04:53:00
8:53 PM,34.0,33.1,96,29.69,7.0,Calm,Calm,-,N/A,Rain-Snow,Light Snow,0,2013-01-15 05:53:00
9:53 PM,33.1,30.0,89,29.75,6.0,WSW,8.1,-,N/A,Snow,Light Snow,240,2013-01-15 06:53:00
10:53 PM,30.9,25.0,79,29.82,7.0,West,11.5,20.7,N/A,Snow,Light Snow,270,2013-01-15 07:53:00
11:53 PM,28.9,19.9,69,29.87,10.0,West,19.6,27.6,N/A,Snow,Light Snow,270,2013-01-15 08:53:00